[[{"header":{"parameterUnit":"m.s-1","parameterCategory":1,"la1":30.2991,"la2":30.254,"lo1":-89.0895,"lo2":-89.0444,"dy":0.0017,"dx":0.0017,"nx":28,"ny":28,"refTime":"2023-07-21T21:00:00:Z","depth":0,"parameterNumber":2,"parameterNumberName":"U-component_of_WINDS"},"data":[0,0,0,0,0,0,0,0,0,0,0,0,0,0,0,0,0,0,0,0,0,0,0,0,0,0,0,0,0,0,0,0,0,0,0,0,0,0,0,0,0,0,0,0,0,0,0,0,0,0,0,0,0,0,0,0,0,0,2.3635,2.3636,0,2.3758,2.376,2.3761,2.3836,2.3837,2.3837,2.3837,2.3966,2.3969,2.3972,0,0,0,0,0,0,0,0,0,0,0,0,0,2.3466,2.3469,2.3635,2.3636,2.3638,2.3758,2.376,2.3761,2.3836,2.3837,2.3837,2.3838,2.3965,2.3969,2.3973,0,0,0,0,0,0,0,0,0,0,0,0,0,2.356,2.347,2.3634,2.369,2.3696,2.3758,2.376,2.3762,2.3836,2.3837,2.3837,2.3838,2.3964,2.3969,2.3973,2.3991,0,0,2.3987,2.3989,0,0,0,0,0,0,0,0,2.3554,2.3566,2.368,2.3686,2.3693,2.3782,2.3748,2.3839,2.3836,2.3783,2.3837,2.3838,2.3905,2.3914,2.3936,2.3997,2.4002,2.3988,2.3991,2.3993,2.3994,0,0,0,0,0,0,0,2.3548,2.3561,2.3684,2.3681,2.3689,2.3709,2.3723,2.3765,2.3839,2.3788,2.3793,2.3807,2.3909,2.3932,2.394,2.4004,2.3988,2.3992,2.3995,2.3996,2.4086,2.4086,0,0,0,0,0,0,2.3532,2.3555,2.368,2.3687,2.3623,2.3712,2.3727,2.3753,2.3839,2.3853,2.3806,2.381,2.3924,2.3935,2.3945,2.3972,2.3993,2.3997,2.4,2.4087,2.4086,2.4086,0,0,0,0,0,0,2.3528,2.3543,2.3675,2.3623,2.3641,2.3714,2.3743,2.3755,2.3779,2.3853,2.3867,2.3816,2.3925,2.3938,2.3979,2.3977,2.3999,2.4003,2.4087,2.4087,2.4086,2.4025,0,0,0,0,0,0,2.3523,2.3541,2.3547,2.3622,2.3644,2.3705,2.3742,2.3757,2.3786,2.3792,2.3866,2.3879,2.3926,2.3972,2.3983,2.3984,2.4007,2.4088,2.4087,2.4086,2.4027,2.4022,2.4018,0,0,0,0,0,2.3517,2.3525,2.3547,2.3562,2.3653,2.3705,2.3718,2.3771,2.3786,2.3793,2.3842,2.3877,2.3975,2.3975,2.3989,2.3991,2.4088,2.4087,2.4086,2.4029,2.4023,2.4018,0,0,0,0,0,0,2.3449,2.3536,2.3561,2.3594,2.3642,2.3718,2.3729,2.3762,2.3807,2.3811,2.3876,2.3892,2.3926,2.3963,2.3961,2.4013,2.4036,2.4038,2.3988,2.3982,2.3978,2.3968,2.4011,0,0,0,0,0,2.3437,2.3472,2.3547,2.3568,2.3591,2.3656,2.368,2.3717,2.3769,2.379,2.3841,2.3891,2.3933,2.396,2.4003,2.4033,2.4051,2.4041,2.4036,2.4032,2.4033,2.4052,2.4049,2.4083,2.4083,2.4083,0,0,2.3415,2.3467,2.3484,2.3556,2.3597,2.3632,2.3672,2.3707,2.3734,2.3796,2.3837,2.3876,2.3936,2.3971,2.399,2.4003,2.4028,2.4031,2.4027,2.403,2.4051,2.4048,2.4045,2.4082,2.4082,2.4083,0,0,2.3391,2.3433,2.3457,2.3497,2.3558,2.3602,2.3607,2.3679,2.3707,2.3749,2.3796,2.383,2.3901,2.3942,2.3972,2.3965,2.3999,2.3977,2.3952,2.397,2.3968,2.3966,2.3964,2.3962,2.3978,2.3978,2.3978,0,2.3355,2.3409,2.3465,2.3497,2.3527,2.3584,2.3609,2.3646,2.3718,2.3738,2.3752,2.3844,2.3888,2.3934,2.3932,2.3955,2.3964,2.3969,2.3963,2.3962,2.3961,2.396,2.3959,2.3975,2.3975,2.3975,2.3976,0,2.3362,2.3398,2.341,2.3478,2.351,2.3538,2.3599,2.3625,2.3659,2.3701,2.3744,2.3799,2.3855,2.3869,2.3903,2.392,2.3926,2.3951,2.3975,2.3954,2.3954,2.3954,2.397,2.3971,2.3972,2.3973,0,0,2.3299,2.3397,2.3401,2.3432,2.3505,2.3535,2.3566,2.362,2.3641,2.3689,2.3718,2.3777,2.38,2.3834,2.3874,2.389,2.3881,2.3913,2.3915,2.3905,2.3904,2.3885,2.3884,2.3904,2.3904,2.3904,2.3899,0,2.3286,2.3344,2.3395,2.3435,2.347,2.3525,2.3552,2.36,2.364,2.3677,2.3722,2.3763,2.379,2.3811,2.3829,2.3878,2.3882,2.3879,2.3932,2.3933,2.3915,2.3884,2.3864,2.3856,2.3899,2.39,2.39,0,2.3279,2.3324,2.3367,2.3436,2.3453,2.3476,2.353,2.3564,2.3619,2.3648,2.3686,2.3727,2.3764,2.3784,2.3836,2.3834,2.3859,2.3886,2.3887,2.3894,2.3915,2.389,2.3855,2.3853,2.39,2.39,2.39,0,2.3228,2.33,2.3336,2.3361,2.3443,2.3458,2.3493,2.355,2.3579,2.3626,2.3646,2.3697,2.3725,2.3764,2.3819,2.3828,2.3865,2.389,2.3891,2.3889,2.3896,2.3895,2.3864,2.3911,2.3911,2.3911,2.3911,0,2.3209,2.3233,2.3314,2.3336,2.3365,2.3424,2.3452,2.3492,2.3541,2.3572,2.3624,2.3652,2.3722,2.3759,2.3802,2.3839,2.3851,2.3876,2.3887,2.3871,2.3868,2.3888,2.3891,2.3911,2.3911,2.3911,2.3911,0,2.3158,2.3213,2.3255,2.3329,2.3348,2.3366,2.343,2.3454,2.3497,2.3536,2.3548,2.3616,2.3663,2.3721,2.3786,2.3815,2.3847,2.3864,2.3828,2.3834,2.3832,2.3831,2.3813,2.3814,2.386,2.3859,2.3859,0,2.3142,2.3162,2.3238,2.3262,2.3295,2.3333,2.3363,2.3423,2.3452,2.3517,2.3533,2.3583,2.3626,2.3698,2.3754,2.3804,2.3823,2.3813,2.3831,2.3815,2.3823,2.3821,2.3824,2.3809,2.3808,2.3807,2.3807,0,2.3108,2.3134,2.3175,2.3225,2.3259,2.3302,2.3347,2.3365,2.3434,2.3464,2.3512,2.3545,2.3611,2.3661,2.3718,2.3756,2.3793,2.3801,2.3803,2.3788,2.3766,2.3778,2.3816,2.3801,2.3801,2.3802,2.3802,2.3802,2.3074,2.3095,2.3151,2.3195,2.3235,2.3276,2.3302,2.3348,2.3389,2.3447,2.348,2.3526,2.3583,2.3664,2.37,2.3738,2.3752,2.3755,2.3757,2.3757,2.3752,2.3759,2.3748,2.3749,2.3749,2.3749,2.3749,0,2.3043,2.3082,2.3122,2.3183,2.3218,2.3249,2.3301,2.3328,2.3368,2.3417,2.3459,2.3514,2.3562,2.3621,2.3674,2.3693,2.3711,2.3705,2.3704,2.3712,2.3736,2.3729,2.3689,2.3689,2.3689,2.3689,2.3689,2.3689,2.3031,2.3067,2.31,2.3157,2.3197,2.3242,2.3269,2.3308,2.3347,2.3406,2.3446,2.3484,2.3538,2.3595,2.3641,2.3657,2.3674,2.3662,2.3684,2.3705,2.3711,2.3716,2.3709,2.3665,2.3665,2.3657,2.3657,2.3657]},{"header":{"parameterUnit":"m.s-1","parameterCategory":1,"la1":30.2991,"la2":30.254,"lo1":-89.0895,"lo2":-89.0444,"dy":0.0017,"dx":0.0017,"nx":28,"ny":28,"refTime":"2023-07-21T21:00:00:Z","depth":0,"parameterNumber":3,"parameterNumberName":"V-component_of_WINDS"},"data":[0,0,0,0,0,0,0,0,0,0,0,0,0,0,0,0,0,0,0,0,0,0,0,0,0,0,0,0,0,0,0,0,0,0,0,0,0,0,0,0,0,0,0,0,0,0,0,0,0,0,0,0,0,0,0,0,0,0,1.1074,1.1074,0,1.1068,1.1068,1.1068,1.103,1.1029,1.1029,1.1028,1.1021,1.1022,1.1023,0,0,0,0,0,0,0,0,0,0,0,0,0,1.1051,1.1052,1.1074,1.1074,1.1074,1.1068,1.1068,1.1068,1.1031,1.1029,1.1028,1.1027,1.1021,1.1022,1.1023,0,0,0,0,0,0,0,0,0,0,0,0,0,1.1055,1.1052,1.1074,1.1054,1.1053,1.1068,1.1068,1.1068,1.1031,1.1029,1.1028,1.1027,1.1021,1.1022,1.1023,1.1056,0,0,1.1026,1.1026,0,0,0,0,0,0,0,0,1.1055,1.1056,1.1057,1.1056,1.1054,1.1048,1.1057,1.1064,1.1031,1.1039,1.1028,1.1026,1.1031,1.1031,1.1033,1.1056,1.1055,1.1026,1.1027,1.1027,1.1027,0,0,0,0,0,0,0,1.1054,1.1056,1.1071,1.1057,1.1055,1.1045,1.1044,1.1058,1.1043,1.1038,1.1036,1.1035,1.103,1.1032,1.1033,1.1055,1.1026,1.1027,1.1027,1.1028,1.1102,1.1103,0,0,0,0,0,0,1.1057,1.1056,1.1072,1.1071,1.1051,1.1047,1.1046,1.1052,1.1043,1.104,1.1037,1.1034,1.1031,1.1032,1.1032,1.1068,1.1027,1.1028,1.1028,1.11,1.1102,1.1103,0,0,0,0,0,0,1.1057,1.1059,1.1072,1.1063,1.1064,1.1049,1.1055,1.1052,1.1054,1.1041,1.1038,1.1042,1.103,1.1031,1.105,1.1068,1.1028,1.1029,1.1099,1.1101,1.1103,1.1142,0,0,0,0,0,0,1.1056,1.1059,1.1072,1.1063,1.1064,1.109,1.1057,1.1053,1.1056,1.1052,1.1045,1.1043,1.1029,1.1048,1.1051,1.1068,1.103,1.1097,1.11,1.1102,1.1139,1.1145,1.115,0,0,0,0,0,1.1056,1.1084,1.1073,1.1075,1.108,1.1091,1.1091,1.1075,1.1058,1.107,1.1061,1.1043,1.1066,1.1051,1.1053,1.1071,1.1096,1.1099,1.1102,1.1136,1.1144,1.115,0,0,0,0,0,0,1.1096,1.1082,1.107,1.1097,1.1095,1.1085,1.11,1.1084,1.1088,1.1084,1.1064,1.1062,1.1083,1.108,1.1063,1.1101,1.1077,1.1081,1.1103,1.111,1.1116,1.1115,1.1031,0,0,0,0,0,1.1107,1.1118,1.1106,1.113,1.113,1.1115,1.1119,1.1107,1.1104,1.1104,1.1096,1.1095,1.1101,1.1106,1.1111,1.1139,1.1135,1.1152,1.1158,1.1163,1.1165,1.1177,1.1183,1.1113,1.1113,1.1113,0,0,1.1132,1.1126,1.1134,1.1138,1.1135,1.1145,1.1115,1.1127,1.1134,1.1106,1.1122,1.1117,1.1113,1.1136,1.1145,1.1133,1.1184,1.1166,1.117,1.117,1.1181,1.1187,1.1193,1.1115,1.1115,1.1115,0,0,1.1181,1.1179,1.1198,1.1195,1.1192,1.1181,1.1186,1.1177,1.1172,1.1189,1.1167,1.1174,1.1187,1.1184,1.1184,1.1231,1.1213,1.1233,1.1262,1.1274,1.1279,1.1284,1.1298,1.1304,1.1237,1.1237,1.1237,0,1.1212,1.1227,1.1209,1.1222,1.1224,1.1198,1.1216,1.1215,1.1213,1.1214,1.12,1.1213,1.1209,1.1229,1.1241,1.1243,1.1246,1.1233,1.128,1.1285,1.1289,1.1302,1.1307,1.1239,1.1239,1.1238,1.1238,0,1.1263,1.1274,1.1289,1.1287,1.129,1.1306,1.129,1.1295,1.1283,1.1273,1.1289,1.1283,1.1286,1.129,1.1278,1.1308,1.13,1.1284,1.1259,1.1298,1.131,1.1315,1.1242,1.1241,1.1241,1.124,0,0,1.1337,1.1325,1.133,1.1328,1.1321,1.1328,1.1342,1.1344,1.1348,1.1348,1.1357,1.1367,1.1351,1.1352,1.1339,1.1349,1.1383,1.1331,1.1331,1.1339,1.1413,1.1423,1.143,1.1372,1.1373,1.1374,1.1412,0,1.1382,1.1405,1.1389,1.1413,1.1421,1.1396,1.1408,1.1404,1.1396,1.1401,1.1392,1.1398,1.1378,1.1378,1.1387,1.1377,1.1397,1.1375,1.1379,1.1379,1.1378,1.1436,1.1448,1.1484,1.1417,1.1418,1.1418,0,1.1438,1.1439,1.1464,1.1453,1.1456,1.1467,1.1466,1.1471,1.1466,1.1459,1.1459,1.1443,1.1454,1.1431,1.1445,1.143,1.1431,1.1427,1.1427,1.1426,1.14,1.1433,1.1496,1.15,1.1426,1.1425,1.1425,0,1.1486,1.1494,1.1509,1.1508,1.1497,1.1504,1.15,1.1493,1.1495,1.1495,1.1495,1.1496,1.1496,1.1497,1.1481,1.1466,1.1496,1.1473,1.1489,1.149,1.1495,1.1495,1.1556,1.15,1.15,1.15,1.15,0,1.1536,1.1552,1.153,1.1539,1.1555,1.1536,1.1553,1.1546,1.154,1.1547,1.1526,1.1533,1.1512,1.1516,1.1504,1.1516,1.1517,1.1511,1.1507,1.1511,1.1512,1.151,1.1506,1.1501,1.1501,1.1501,1.15,0,1.1592,1.1578,1.1592,1.158,1.1577,1.159,1.1579,1.1586,1.1576,1.1584,1.1585,1.1569,1.1573,1.1558,1.1559,1.1551,1.1568,1.1561,1.1569,1.1566,1.1583,1.158,1.1643,1.165,1.1592,1.1592,1.1593,0,1.1624,1.1635,1.1624,1.1626,1.1623,1.1628,1.1629,1.1611,1.1613,1.1607,1.1614,1.1616,1.1616,1.1623,1.1611,1.1611,1.1602,1.1624,1.1602,1.1605,1.16,1.1598,1.1598,1.1628,1.1629,1.163,1.163,0,1.1681,1.1673,1.1676,1.1675,1.1677,1.1675,1.1673,1.1676,1.1656,1.1659,1.1662,1.1662,1.1663,1.1664,1.1661,1.1656,1.1639,1.1638,1.1641,1.1644,1.1648,1.1643,1.1579,1.1636,1.1635,1.1635,1.1635,1.1634,1.1724,1.1732,1.1725,1.1727,1.1723,1.1721,1.1726,1.1716,1.1719,1.1717,1.1706,1.1711,1.1704,1.1698,1.1695,1.1697,1.1687,1.1692,1.1693,1.1694,1.1696,1.1649,1.1697,1.1697,1.1697,1.1696,1.1696,0,1.1778,1.1772,1.1775,1.1771,1.1772,1.1757,1.1753,1.1755,1.1759,1.1754,1.1754,1.1756,1.1757,1.1745,1.1744,1.1748,1.174,1.1748,1.1746,1.1745,1.1707,1.1703,1.1754,1.1754,1.1754,1.1754,1.1754,1.1754,1.1806,1.1818,1.1809,1.1817,1.1811,1.1815,1.1813,1.181,1.1806,1.1809,1.1809,1.1802,1.1793,1.1791,1.179,1.1787,1.1786,1.1796,1.179,1.1754,1.1748,1.1743,1.1739,1.1797,1.1797,1.1827,1.1828,1.1828]}]]